Vossem Meer informatie Vossem


Tervuren markt Meer informatie Tervuren markt


Tervuren park Meer informatie Tervuren park


Bezoek onze andere website:

Meteotemplate

Home Weather Station

Saratoga


Lokaal brand risico:
CBI


Regionaal brand risico: Meer informatie



Select another period ( hide this area )

Eenheden Periode Custom range Directly to
Metrisch Engels Beide
Dagelijkse Wekelijkse Maandelijkse Jaarlijkse
use both date-selectors for a custom range
previous Dag
With this date

WeatherUnderground graphs for this period ( click here )


Dagelijkse Samenvatting Zaterdag 06 juni 2020
Tijd Temp. ( °C ) Dew pt. ( °C ) Wind ( km/h ) van Vlaag ( km/h ) Luchtdruk ( hPa ) Humid.( % ) Rainrate ( cm )
Hoog17,6 9,7 19,0 ZZW ( 152/1105 ) 31,0 1009,8 92 0,76
Gemiddeld11,9 6,9 5,0 Kalm #39/222 10,7 999,2 74 1,50
Laag6,9 5,3 -   0,0 997,6 47 -
Dagelijkse Tabular details for Zaterdag 06 juni 2020
Tijd Temp. ( °C ) Dew pt. ( °C ) Wind ( km/h ) van Vlaag ( km/h ) Luchtdruk ( hPa ) Humid.( % ) Rainrate ( cm )
00:03 8,3 6,4 3,0 ZZO 6,0 998,7 88 -
00:09 8,4 6,4 3,0 Zuiden 8,0 998,7 87 -
00:13 8,4 6,4 3,0 ZZO 11,0 998,7 87 -
00:19 8,5 6,3 3,0 Zuiden 10,0 998,3 86 -
00:23 8,5 6,3 5,0 Zuiden 11,0 998,0 86 -
00:29 8,5 6,3 3,0 ZW 16,0 998,3 86 -
00:33 8,4 6,4 2,0 WZW 6,0 998,3 87 -
00:39 8,4 6,4 2,0 Zuiden 10,0 998,3 87 -
00:43 8,3 6,3 3,0 ZZW 6,0 998,3 87 -
00:49 8,3 6,3 3,0 ZW 5,0 998,3 87 -
00:53 8,2 6,2 3,0 ZZW 5,0 998,3 87 -
00:59 8,2 6,2 3,0 ZZW 5,0 998,3 87 -
01:03 8,2 6,2   Kalm   998,3 87 -
01:09 8,2 6,2 2,0 ZZW 2,0 998,3 87 -
01:13 8,1 6,1   Kalm   998,0 87 -
01:19 8,1 6,1 2,0 ONO 3,0 998,3 87 -
01:23 8,1 6,1 2,0 Zuiden 6,0 998,0 87 -
01:29 8,1 6,1 2,0 Zuiden 3,0 998,0 87 -
01:33 8,1 6,1 2,0 Oosten 5,0 998,0 87 -
01:39 8,1 6,2 2,0 ZZO 6,0 998,0 88 -
01:43 8,1 6,2 2,0 ZZW 2,0 998,0 88 -
01:49 8,1 6,2 3,0 ZZW 5,0 998,0 88 -
01:53 8,0 6,0   Kalm 2,0 998,0 87 -
01:59 7,9 5,9 2,0 ZW 3,0 998,0 87 -
02:03 7,9 5,9   Kalm   998,0 87 -
02:09 7,8 5,8 2,0 ZZW 3,0 998,0 87 -
02:13 7,8 5,9   Kalm 3,0 998,0 88 -
02:19 7,7 5,8   Kalm 8,0 998,0 88 -
02:23 7,8 5,9 2,0 WZW 3,0 998,0 88 -
02:29 7,8 5,9 2,0 ZO 5,0 998,0 88 -
02:33 7,8 5,9   Kalm 2,0 998,0 88 -
02:39 7,8 5,9   Kalm   998,0 88 -
02:43 7,8 5,9 2,0 ZZW 5,0 998,0 88 -
02:49 7,8 5,9 3,0 ZZW 5,0 998,0 88 -
02:53 7,7 5,8 2,0 ZZW 3,0 998,0 88 -
02:59 7,7 6,0 2,0 Zuiden 5,0 998,0 89 -
03:03 7,7 6,0 2,0 Zuiden 3,0 998,0 89 -
03:09 7,8 6,1 3,0 Zuiden 5,0 998,0 89 -
03:13 7,8 6,1 2,0 ZZW 2,0 998,0 89 -
03:19 7,7 6,0 2,0 ZZW 3,0 998,0 89 -
03:23 7,7 6,0   Kalm 3,0 998,0 89 -
03:29 7,6 5,9   Kalm 5,0 998,0 89 -
03:33 7,6 5,8 2,0 ZZW 3,0 998,0 89 -
03:39 7,5 5,6   Kalm 3,0 998,0 88 -
03:43 7,4 5,7   Kalm 5,0 998,0 89 -
03:47 7,3 5,6   Kalm 3,0 998,0 89 -
03:53 7,3 5,6 2,0 ZZW 2,0 998,0 89 -
03:59 7,3 5,6 3,0 ZZW 3,0 998,0 89 -
04:03 7,3 5,6   Kalm   998,0 89 -
04:09 7,2 5,5   Kalm   998,0 89 -
04:13 7,1 5,4   Kalm 3,0 998,0 89 -
04:19 7,1 5,4   Kalm 2,0 998,0 89 -
04:23 7,0 5,5   Kalm 3,0 998,0 90 -
04:29 7,0 5,5 2,0 ZZW 2,0 998,0 90 -
04:33 6,9 5,4   Kalm 3,0 998,0 90 -
04:39 6,9 5,4   Kalm 2,0 998,0 90 -
04:43 6,9 5,4   Kalm 2,0 998,0 90 -
04:49 6,9 5,5   Kalm 5,0 998,0 91 -
04:53 6,9 5,5   Kalm 2,0 998,0 91 -
04:59 7,0 5,6   Kalm 5,0 998,0 91 -
05:03 7,1 5,7 2,0 Zuiden 2,0 998,0 91 -
05:08 7,1 5,7 2,0 Zuiden 3,0 998,0 91 -
05:14 7,1 5,7 3,0 Zuiden 5,0 998,0 91 -
05:18 7,1 5,7   Kalm 3,0 998,0 91 -
05:24 7,2 5,8 3,0 Zuiden 3,0 998,0 91 -
05:28 7,2 5,8   Kalm   997,6 91 -
05:34 7,3 6,1 2,0 ZZO 6,0 998,0 92 -
05:38 7,3 6,1   Kalm 2,0 998,0 92 -
05:44 7,4 6,2 2,0 ZO 3,0 998,0 92 -
05:48 7,4 6,2 2,0 ZO 3,0 998,0 92 -
05:54 7,6 6,4 2,0 ZZW 6,0 998,0 92 -
05:58 7,6 6,4   Kalm   998,0 92 -
06:04 7,6 6,4   Kalm   998,0 92 -
06:08 7,7 6,5   Kalm 3,0 998,0 92 -
06:14 7,8 6,6 5,0 ZZO 5,0 998,0 92 -
06:18 7,9 6,7 2,0 ZW 2,0 998,0 92 -
06:24 8,0 6,8 2,0 WZW 5,0 998,0 92 -
06:28 8,1 6,9   Kalm   998,3 92 -
06:34 8,2 7,0 2,0 Zuiden 8,0 998,3 92 -
06:38 8,3 7,1 2,0 Westen 19,0 998,3 92 0,76
06:44 8,3 7,1 2,0 NW 8,0 998,3 92 0,76
06:48 8,4 7,2   Kalm   998,3 92 0,76
06:54 8,5 7,3 7,0 WZW 6,0 998,3 92 0,76
06:58 8,6 7,4 2,0 ZW 5,0 998,3 92 0,76
07:04 8,6 7,4 2,0 Westen 3,0 998,7 92 0,76
07:08 8,6 7,4 3,0 WZW 3,0 998,7 92 0,76
07:14 8,7 7,5 2,0 WNW 3,0 998,3 92 -
07:18 8,7 7,5 2,0 Westen 3,0 998,3 92 -
07:24 8,8 7,6   Kalm 5,0 998,3 92 -
07:28 8,9 7,7   Kalm 3,0 998,7 92 -
07:34 8,9 7,7 2,0 ZW 3,0 998,7 92 -
07:38 9,1 7,9   Kalm 2,0 998,3 92 -
07:44 9,2 8,0   Kalm 3,0 998,7 92 -
07:48 9,3 8,1 2,0 ZW 6,0 998,7 92 -
07:54 9,4 8,2 3,0 ZZO 10,0 998,7 92 -
07:58 9,4 8,2 5,0 ZO 8,0 998,7 92 -
08:04 9,4 8,2   Kalm 5,0 998,7 92 -
08:08 9,4 8,0 2,0 WNW 6,0 998,7 91 -
08:14 9,5 8,1   Kalm 6,0 998,7 91 -
08:18 9,5 8,1   Kalm 5,0 999,0 91 -
08:24 9,6 8,2 5,0 ZZO 15,0 998,7 91 -
08:28 9,7 8,3 7,0 ZZO 6,0 998,7 91 -
08:34 9,8 8,3 3,0 ZZW 6,0 998,7 91 -
08:38 9,8 8,2 2,0 ZZO 6,0 998,7 90 -
08:44 9,8 8,2 2,0 ZZW 8,0 999,0 90 -
08:48 9,8 8,1 2,0 WZW 5,0 999,0 89 -
08:54 10,3 8,7 7,0 WZW 6,0 999,0 90 -
08:58 10,7 9,0 3,0 NO 5,0 999,0 90 -
09:04 11,4 9,3 3,0 ZZO 5,0 998,7 88 -
09:08 11,6 9,1 5,0 ZO 10,0 999,0 85 -
09:14 11,9 9,2 5,0 Zuiden 6,0 999,0 84 -
09:18 12,2 9,4 5,0 WNW 11,0 999,0 83 -
09:24 12,3 9,5 9,0 ZW 16,0 999,0 83 -
09:28 12,3 9,3 2,0 ZW 16,0 999,0 82 0,76
09:34 12,6 9,6 5,0 ZZO 10,0 999,0 82 0,76
09:38 12,8 9,6 2,0 WZW 11,0 999,0 81 0,76
09:44 13,1 9,7 9,0 ZZW 10,0 999,0 81 0,76
09:48 13,1 9,4 2,0 WZW 11,0 999,0 78 -
09:54 13,1 9,5 5,0 ZZW 16,0 999,0 79 -
09:58 13,1 9,4 5,0 ZZO 10,0 999,0 78 -
10:04 13,3 9,5 14,0 Westen 15,0 999,3 78 -
10:08 13,2 9,3 9,0 WZW 15,0 999,3 77 -
10:14 13,1 9,0 9,0 WZW 10,0 999,3 76 -
10:18 13,3 9,1 5,0 ZZO 11,0 999,3 76 -
10:24 13,6 9,3 7,0 ZO 10,0 999,3 76 -
10:28 13,5 8,3 3,0 WZW 11,0 999,3 71 -
10:34 13,4 8,7 5,0 WNW 15,0 999,3 73 -
10:38 13,6 8,4 3,0 NW 15,0 999,3 71 -
10:44 14,1 8,8 5,0 OZO 15,0 999,3 72 -
10:48 14,1 8,5 7,0 OZO 10,0 999,3 69 -
10:54 14,1 8,7 7,0 Westen 15,0 999,3 70 -
10:58 14,3 8,5 5,0 ZZO 21,0 999,3 68 -
11:04 14,8 9,4 5,0 ZW 10,0 999,3 70 -
11:08 14,8 8,7 7,0 WNW 10,0 999,7 67 -
11:14 14,7 8,3 7,0 ZZO 11,0 999,7 66 -
11:18 14,7 7,7 5,0 WNW 21,0 999,7 63 -
11:24 15,1 8,6 7,0 NW 8,0 999,7 65 -
11:28 15,2 8,7 7,0 WZW 16,0 999,7 65 -
11:34 15,2 8,4 7,0 ZW 18,0 999,7 64 -
11:38 14,9 7,7 15,0 Noorden 21,0 999,7 62 -
11:44 14,5 7,7 7,0 NW 10,0 999,7 64 -
11:48 14,8 8,5 5,0 NW 8,0 999,7 66 -
11:54 15,3 8,0 15,0 ZZW 16,0 999,7 63 -
11:58 15,4 7,4 3,0 ZZW 11,0 999,7 59 -
12:04 15,7 7,2 10,0 ZW 16,0 999,7 57 -
12:08 15,5 6,8 9,0 Zuiden 18,0 999,7 57 -
12:14 15,3 7,3 5,0 Westen 18,0 999,7 59 -
12:18 15,3 7,6 7,0 NW 10,0 999,7 60 -
12:24 15,5 7,2 5,0 ZZO 18,0 999,7 58 -
12:28 15,7 8,2 3,0 WNW 15,0 999,7 61 -
12:34 15,8 8,0 7,0 WZW 10,0 999,7 60 -
12:38 15,5 7,5 7,0 ZW 18,0 999,7 59 -
12:44 15,2 7,8 10,0 WNW 16,0 999,7 62 -
12:48 14,9 7,7 5,0 ONO 19,0 999,7 62 -
12:54 15,0 7,1 5,0 ZZO 11,0 1000,0 59 -
12:58 15,3 6,5 3,0 NNW 18,0 1000,0 56 -
13:04 15,7 6,2 12,0 ZZW 21,0 1000,0 54 -
13:08 15,8 6,2 7,0 Westen 21,0 1000,0 53 -
13:14 16,0 6,8 5,0 OZO 19,0 1000,0 55 -
13:18 16,3 7,2 12,0 Zuiden 23,0 1000,0 55 -
13:24 16,4 7,3 3,0 Zuiden 23,0 1000,0 55 -
13:28 16,5 7,4 7,0 ZO 31,0 1000,0 55 -
13:34 16,6 8,0 10,0 ZW 19,0 1000,0 57 -
13:38 16,3 7,5 10,0 Noorden 15,0 1000,0 56 -
13:44 15,9 7,3 10,0 Oosten 18,0 1000,3 57 -
13:48 15,8 7,3 5,0 NNW 11,0 1000,3 57 -
13:54 15,3 6,5 17,0 Westen 18,0 1000,3 57 -
13:58 14,8 6,1 3,0 ZW 19,0 1000,3 56 -
14:04 15,3 5,8 5,0 Westen 23,0 1000,3 55 -
14:08 15,8 6,2 5,0 WZW 21,0 1000,3 53 -
14:14 16,3 7,2 9,0 OZO 26,0 1000,3 55 -
14:18 16,6 6,6 19,0 WZW 19,0 1000,3 52 -
14:24 16,4 6,4 10,0 ZW 21,0 1000,3 52 -
14:28 16,5 6,9 9,0 NNO 11,0 1000,3 53 -
14:34 16,9 7,3 5,0 Zuiden 19,0 1000,3 54 -
14:38 17,0 6,8 7,0 Westen 15,0 1000,3 51 -
14:44 17,3 7,4 12,0 NNO 16,0 1000,3 53 -
14:48 17,3 6,7 12,0 ZW 23,0 1000,3 50 -
14:54 17,1 6,6 7,0 ZZO 26,0 1000,3 50 -
14:58 16,8 6,7 5,0 ZW 15,0 1000,3 52 -
15:04 16,4 7,1 9,0 ZZW 11,0 1000,3 55 -
15:08 16,1 7,3 3,0 Oosten 15,0 1000,3 56 -
15:14 15,9 6,3 9,0 NNO 11,0 1000,3 53 -
15:18 15,8 6,5 14,0 ZW 24,0 1000,3 54 -
15:24 15,8 6,8 12,0 ZZW 24,0 1000,3 55 -
15:28 16,1 7,4 10,0 WNW 18,0 1000,7 57 -
15:34 16,1 7,3 9,0 ONO 21,0 1000,7 56 -
15:38 16,3 7,5 12,0 NNW 16,0 1000,7 56 -
15:44 16,5 6,3 14,0 WZW 19,0 1000,3 51 -
15:48 16,4 5,9 7,0 ZZO 19,0 1000,3 50 -
15:54 16,8 6,2 12,0 ZW 18,0 1000,3 50 -
15:58 16,8 5,4 15,0 Zuiden 16,0 1000,3 47 -
16:04 16,7 5,9 17,0 WNW 23,0 1000,3 49 -
16:08 16,8 5,6 9,0 ZZW 23,0 1000,3 48 -
16:14 17,1 5,8 9,0 Westen 19,0 1000,3 48 -
16:18 17,0 6,2 12,0 WNW 19,0 1000,3 49 -
16:24 16,7 6,6 5,0 WNW 23,0 1000,3 52 -
16:28 16,6 7,3 14,0 WNW 18,0 1000,3 54 -
16:34 16,5 6,9 7,0 ZZW 18,0 1000,3 53 -
16:38 16,8 7,1 5,0 ZZW 11,0 1000,3 53 -
16:44 17,1 6,9 17,0 WZW 23,0 1000,3 51 -
16:48 17,2 6,4 7,0 WZW 21,0 1000,3 49 -
16:54 17,4 7,2 5,0 ZZW 11,0 1000,3 51 -
16:58 17,2 6,9 15,0 WZW 24,0 1000,3 51 -
17:04 17,2 6,9 9,0 ZZW 19,0 1000,3 51 -
17:08 17,1 6,2 7,0 ZZW 15,0 1000,3 49 -
17:14 17,3 6,8 10,0 WZW 16,0 1000,3 50 -
17:18 17,6 7,2 14,0 Westen 16,0 1000,3 51 -
17:24 17,6 6,8 17,0 WNW 18,0 1000,3 49 -
17:28 17,4 6,3 12,0 ZO 24,0 1000,3 48 -
17:34 17,3 5,9 5,0 Zuiden 16,0 1000,3 47 -
17:38 16,8 5,4 9,0 ZO 21,0 1000,3 47 -
17:44 16,9 6,4 10,0 WNW 26,0 1001,4 50 -
17:48 16,8 5,7 5,0 Oosten 18,0 1000,7 48 -
17:54 16,5 5,7 5,0 WNW 19,0 1009,8 49 -
17:58 16,4 5,7 15,0 WNW 24,0 1005,1 49 -
18:04 16,4 5,9 5,0 ZZO 19,0 1003,4 50 -
18:08 16,2 5,8 9,0 ZO 15,0 1006,4 50 -
18:14 16,7 6,2 5,0 NNW 16,0 1004,4 50 -
18:18 16,7 5,3 7,0 Westen 24,0 1003,1 47 -
18:24 16,4 5,3 14,0 Zuiden 19,0 1001,4 48 -
18:28 16,7 5,5 7,0 ZW 11,0 1000,3 48 -
Dagelijkse Samenvatting Zaterdag 06 juni 2020
Tijd Temp. ( °C ) Dew pt. ( °C ) Wind ( km/h ) van Vlaag ( km/h ) Luchtdruk ( hPa ) Humid.( % ) Rainrate ( cm )
Hoog17,6 9,7 19,0 ZZW ( 152/1105 ) 31,0 1009,8 92 0,76
Gemiddeld11,9 6,9 5,0 Kalm #39/222 10,7 999,2 74 1,50
Laag6,9 5,3 -   0,0 997,6 47 -
Dagelijkse Tabular details for Zaterdag 06 juni 2020
Tijd Temp. ( °C ) Dew pt. ( °C ) Wind ( km/h ) van Vlaag ( km/h ) Luchtdruk ( hPa ) Humid.( % ) Rainrate ( cm )
00:03 8,3 6,4 3,0 ZZO 6,0 998,7 88 -
00:09 8,4 6,4 3,0 Zuiden 8,0 998,7 87 -
00:13 8,4 6,4 3,0 ZZO 11,0 998,7 87 -
00:19 8,5 6,3 3,0 Zuiden 10,0 998,3 86 -
00:23 8,5 6,3 5,0 Zuiden 11,0 998,0 86 -
00:29 8,5 6,3 3,0 ZW 16,0 998,3 86 -
00:33 8,4 6,4 2,0 WZW 6,0 998,3 87 -
00:39 8,4 6,4 2,0 Zuiden 10,0 998,3 87 -
00:43 8,3 6,3 3,0 ZZW 6,0 998,3 87 -
00:49 8,3 6,3 3,0 ZW 5,0 998,3 87 -
00:53 8,2 6,2 3,0 ZZW 5,0 998,3 87 -
00:59 8,2 6,2 3,0 ZZW 5,0 998,3 87 -
01:03 8,2 6,2   Kalm   998,3 87 -
01:09 8,2 6,2 2,0 ZZW 2,0 998,3 87 -
01:13 8,1 6,1   Kalm   998,0 87 -
01:19 8,1 6,1 2,0 ONO 3,0 998,3 87 -
01:23 8,1 6,1 2,0 Zuiden 6,0 998,0 87 -
01:29 8,1 6,1 2,0 Zuiden 3,0 998,0 87 -
01:33 8,1 6,1 2,0 Oosten 5,0 998,0 87 -
01:39 8,1 6,2 2,0 ZZO 6,0 998,0 88 -
01:43 8,1 6,2 2,0 ZZW 2,0 998,0 88 -
01:49 8,1 6,2 3,0 ZZW 5,0 998,0 88 -
01:53 8,0 6,0   Kalm 2,0 998,0 87 -
01:59 7,9 5,9 2,0 ZW 3,0 998,0 87 -
02:03 7,9 5,9   Kalm   998,0 87 -
02:09 7,8 5,8 2,0 ZZW 3,0 998,0 87 -
02:13 7,8 5,9   Kalm 3,0 998,0 88 -
02:19 7,7 5,8   Kalm 8,0 998,0 88 -
02:23 7,8 5,9 2,0 WZW 3,0 998,0 88 -
02:29 7,8 5,9 2,0 ZO 5,0 998,0 88 -
02:33 7,8 5,9   Kalm 2,0 998,0 88 -
02:39 7,8 5,9   Kalm   998,0 88 -
02:43 7,8 5,9 2,0 ZZW 5,0 998,0 88 -
02:49 7,8 5,9 3,0 ZZW 5,0 998,0 88 -
02:53 7,7 5,8 2,0 ZZW 3,0 998,0 88 -
02:59 7,7 6,0 2,0 Zuiden 5,0 998,0 89 -
03:03 7,7 6,0 2,0 Zuiden 3,0 998,0 89 -
03:09 7,8 6,1 3,0 Zuiden 5,0 998,0 89 -
03:13 7,8 6,1 2,0 ZZW 2,0 998,0 89 -
03:19 7,7 6,0 2,0 ZZW 3,0 998,0 89 -
03:23 7,7 6,0   Kalm 3,0 998,0 89 -
03:29 7,6 5,9   Kalm 5,0 998,0 89 -
03:33 7,6 5,8 2,0 ZZW 3,0 998,0 89 -
03:39 7,5 5,6   Kalm 3,0 998,0 88 -
03:43 7,4 5,7   Kalm 5,0 998,0 89 -
03:47 7,3 5,6   Kalm 3,0 998,0 89 -
03:53 7,3 5,6 2,0 ZZW 2,0 998,0 89 -
03:59 7,3 5,6 3,0 ZZW 3,0 998,0 89 -
04:03 7,3 5,6   Kalm   998,0 89 -
04:09 7,2 5,5   Kalm   998,0 89 -
04:13 7,1 5,4   Kalm 3,0 998,0 89 -
04:19 7,1 5,4   Kalm 2,0 998,0 89 -
04:23 7,0 5,5   Kalm 3,0 998,0 90 -
04:29 7,0 5,5 2,0 ZZW 2,0 998,0 90 -
04:33 6,9 5,4   Kalm 3,0 998,0 90 -
04:39 6,9 5,4   Kalm 2,0 998,0 90 -
04:43 6,9 5,4   Kalm 2,0 998,0 90 -
04:49 6,9 5,5   Kalm 5,0 998,0 91 -
04:53 6,9 5,5   Kalm 2,0 998,0 91 -
04:59 7,0 5,6   Kalm 5,0 998,0 91 -
05:03 7,1 5,7 2,0 Zuiden 2,0 998,0 91 -
05:08 7,1 5,7 2,0 Zuiden 3,0 998,0 91 -
05:14 7,1 5,7 3,0 Zuiden 5,0 998,0 91 -
05:18 7,1 5,7   Kalm 3,0 998,0 91 -
05:24 7,2 5,8 3,0 Zuiden 3,0 998,0 91 -
05:28 7,2 5,8   Kalm   997,6 91 -
05:34 7,3 6,1 2,0 ZZO 6,0 998,0 92 -
05:38 7,3 6,1   Kalm 2,0 998,0 92 -
05:44 7,4 6,2 2,0 ZO 3,0 998,0 92 -
05:48 7,4 6,2 2,0 ZO 3,0 998,0 92 -
05:54 7,6 6,4 2,0 ZZW 6,0 998,0 92 -
05:58 7,6 6,4   Kalm   998,0 92 -
06:04 7,6 6,4   Kalm   998,0 92 -
06:08 7,7 6,5   Kalm 3,0 998,0 92 -
06:14 7,8 6,6 5,0 ZZO 5,0 998,0 92 -
06:18 7,9 6,7 2,0 ZW 2,0 998,0 92 -
06:24 8,0 6,8 2,0 WZW 5,0 998,0 92 -
06:28 8,1 6,9   Kalm   998,3 92 -
06:34 8,2 7,0 2,0 Zuiden 8,0 998,3 92 -
06:38 8,3 7,1 2,0 Westen 19,0 998,3 92 0,76
06:44 8,3 7,1 2,0 NW 8,0 998,3 92 0,76
06:48 8,4 7,2   Kalm   998,3 92 0,76
06:54 8,5 7,3 7,0 WZW 6,0 998,3 92 0,76
06:58 8,6 7,4 2,0 ZW 5,0 998,3 92 0,76
07:04 8,6 7,4 2,0 Westen 3,0 998,7 92 0,76
07:08 8,6 7,4 3,0 WZW 3,0 998,7 92 0,76
07:14 8,7 7,5 2,0 WNW 3,0 998,3 92 -
07:18 8,7 7,5 2,0 Westen 3,0 998,3 92 -
07:24 8,8 7,6   Kalm 5,0 998,3 92 -
07:28 8,9 7,7   Kalm 3,0 998,7 92 -
07:34 8,9 7,7 2,0 ZW 3,0 998,7 92 -
07:38 9,1 7,9   Kalm 2,0 998,3 92 -
07:44 9,2 8,0   Kalm 3,0 998,7 92 -
07:48 9,3 8,1 2,0 ZW 6,0 998,7 92 -
07:54 9,4 8,2 3,0 ZZO 10,0 998,7 92 -
07:58 9,4 8,2 5,0 ZO 8,0 998,7 92 -
08:04 9,4 8,2   Kalm 5,0 998,7 92 -
08:08 9,4 8,0 2,0 WNW 6,0 998,7 91 -
08:14 9,5 8,1   Kalm 6,0 998,7 91 -
08:18 9,5 8,1   Kalm 5,0 999,0 91 -
08:24 9,6 8,2 5,0 ZZO 15,0 998,7 91 -
08:28 9,7 8,3 7,0 ZZO 6,0 998,7 91 -
08:34 9,8 8,3 3,0 ZZW 6,0 998,7 91 -
08:38 9,8 8,2 2,0 ZZO 6,0 998,7 90 -
08:44 9,8 8,2 2,0 ZZW 8,0 999,0 90 -
08:48 9,8 8,1 2,0 WZW 5,0 999,0 89 -
08:54 10,3 8,7 7,0 WZW 6,0 999,0 90 -
08:58 10,7 9,0 3,0 NO 5,0 999,0 90 -
09:04 11,4 9,3 3,0 ZZO 5,0 998,7 88 -
09:08 11,6 9,1 5,0 ZO 10,0 999,0 85 -
09:14 11,9 9,2 5,0 Zuiden 6,0 999,0 84 -
09:18 12,2 9,4 5,0 WNW 11,0 999,0 83 -
09:24 12,3 9,5 9,0 ZW 16,0 999,0 83 -
09:28 12,3 9,3 2,0 ZW 16,0 999,0 82 0,76
09:34 12,6 9,6 5,0 ZZO 10,0 999,0 82 0,76
09:38 12,8 9,6 2,0 WZW 11,0 999,0 81 0,76
09:44 13,1 9,7 9,0 ZZW 10,0 999,0 81 0,76
09:48 13,1 9,4 2,0 WZW 11,0 999,0 78 -
09:54 13,1 9,5 5,0 ZZW 16,0 999,0 79 -
09:58 13,1 9,4 5,0 ZZO 10,0 999,0 78 -
10:04 13,3 9,5 14,0 Westen 15,0 999,3 78 -
10:08 13,2 9,3 9,0 WZW 15,0 999,3 77 -
10:14 13,1 9,0 9,0 WZW 10,0 999,3 76 -
10:18 13,3 9,1 5,0 ZZO 11,0 999,3 76 -
10:24 13,6 9,3 7,0 ZO 10,0 999,3 76 -
10:28 13,5 8,3 3,0 WZW 11,0 999,3 71 -
10:34 13,4 8,7 5,0 WNW 15,0 999,3 73 -
10:38 13,6 8,4 3,0 NW 15,0 999,3 71 -
10:44 14,1 8,8 5,0 OZO 15,0 999,3 72 -
10:48 14,1 8,5 7,0 OZO 10,0 999,3 69 -
10:54 14,1 8,7 7,0 Westen 15,0 999,3 70 -
10:58 14,3 8,5 5,0 ZZO 21,0 999,3 68 -
11:04 14,8 9,4 5,0 ZW 10,0 999,3 70 -
11:08 14,8 8,7 7,0 WNW 10,0 999,7 67 -
11:14 14,7 8,3 7,0 ZZO 11,0 999,7 66 -
11:18 14,7 7,7 5,0 WNW 21,0 999,7 63 -
11:24 15,1 8,6 7,0 NW 8,0 999,7 65 -
11:28 15,2 8,7 7,0 WZW 16,0 999,7 65 -
11:34 15,2 8,4 7,0 ZW 18,0 999,7 64 -
11:38 14,9 7,7 15,0 Noorden 21,0 999,7 62 -
11:44 14,5 7,7 7,0 NW 10,0 999,7 64 -
11:48 14,8 8,5 5,0 NW 8,0 999,7 66 -
11:54 15,3 8,0 15,0 ZZW 16,0 999,7 63 -
11:58 15,4 7,4 3,0 ZZW 11,0 999,7 59 -
12:04 15,7 7,2 10,0 ZW 16,0 999,7 57 -
12:08 15,5 6,8 9,0 Zuiden 18,0 999,7 57 -
12:14 15,3 7,3 5,0 Westen 18,0 999,7 59 -
12:18 15,3 7,6 7,0 NW 10,0 999,7 60 -
12:24 15,5 7,2 5,0 ZZO 18,0 999,7 58 -
12:28 15,7 8,2 3,0 WNW 15,0 999,7 61 -
12:34 15,8 8,0 7,0 WZW 10,0 999,7 60 -
12:38 15,5 7,5 7,0 ZW 18,0 999,7 59 -
12:44 15,2 7,8 10,0 WNW 16,0 999,7 62 -
12:48 14,9 7,7 5,0 ONO 19,0 999,7 62 -
12:54 15,0 7,1 5,0 ZZO 11,0 1000,0 59 -
12:58 15,3 6,5 3,0 NNW 18,0 1000,0 56 -
13:04 15,7 6,2 12,0 ZZW 21,0 1000,0 54 -
13:08 15,8 6,2 7,0 Westen 21,0 1000,0 53 -
13:14 16,0 6,8 5,0 OZO 19,0 1000,0 55 -
13:18 16,3 7,2 12,0 Zuiden 23,0 1000,0 55 -
13:24 16,4 7,3 3,0 Zuiden 23,0 1000,0 55 -
13:28 16,5 7,4 7,0 ZO 31,0 1000,0 55 -
13:34 16,6 8,0 10,0 ZW 19,0 1000,0 57 -
13:38 16,3 7,5 10,0 Noorden 15,0 1000,0 56 -
13:44 15,9 7,3 10,0 Oosten 18,0 1000,3 57 -
13:48 15,8 7,3 5,0 NNW 11,0 1000,3 57 -
13:54 15,3 6,5 17,0 Westen 18,0 1000,3 57 -
13:58 14,8 6,1 3,0 ZW 19,0 1000,3 56 -
14:04 15,3 5,8 5,0 Westen 23,0 1000,3 55 -
14:08 15,8 6,2 5,0 WZW 21,0 1000,3 53 -
14:14 16,3 7,2 9,0 OZO 26,0 1000,3 55 -
14:18 16,6 6,6 19,0 WZW 19,0 1000,3 52 -
14:24 16,4 6,4 10,0 ZW 21,0 1000,3 52 -
14:28 16,5 6,9 9,0 NNO 11,0 1000,3 53 -
14:34 16,9 7,3 5,0 Zuiden 19,0 1000,3 54 -
14:38 17,0 6,8 7,0 Westen 15,0 1000,3 51 -
14:44 17,3 7,4 12,0 NNO 16,0 1000,3 53 -
14:48 17,3 6,7 12,0 ZW 23,0 1000,3 50 -
14:54 17,1 6,6 7,0 ZZO 26,0 1000,3 50 -
14:58 16,8 6,7 5,0 ZW 15,0 1000,3 52 -
15:04 16,4 7,1 9,0 ZZW 11,0 1000,3 55 -
15:08 16,1 7,3 3,0 Oosten 15,0 1000,3 56 -
15:14 15,9 6,3 9,0 NNO 11,0 1000,3 53 -
15:18 15,8 6,5 14,0 ZW 24,0 1000,3 54 -
15:24 15,8 6,8 12,0 ZZW 24,0 1000,3 55 -
15:28 16,1 7,4 10,0 WNW 18,0 1000,7 57 -
15:34 16,1 7,3 9,0 ONO 21,0 1000,7 56 -
15:38 16,3 7,5 12,0 NNW 16,0 1000,7 56 -
15:44 16,5 6,3 14,0 WZW 19,0 1000,3 51 -
15:48 16,4 5,9 7,0 ZZO 19,0 1000,3 50 -
15:54 16,8 6,2 12,0 ZW 18,0 1000,3 50 -
15:58 16,8 5,4 15,0 Zuiden 16,0 1000,3 47 -
16:04 16,7 5,9 17,0 WNW 23,0 1000,3 49 -
16:08 16,8 5,6 9,0 ZZW 23,0 1000,3 48 -
16:14 17,1 5,8 9,0 Westen 19,0 1000,3 48 -
16:18 17,0 6,2 12,0 WNW 19,0 1000,3 49 -
16:24 16,7 6,6 5,0 WNW 23,0 1000,3 52 -
16:28 16,6 7,3 14,0 WNW 18,0 1000,3 54 -
16:34 16,5 6,9 7,0 ZZW 18,0 1000,3 53 -
16:38 16,8 7,1 5,0 ZZW 11,0 1000,3 53 -
16:44 17,1 6,9 17,0 WZW 23,0 1000,3 51 -
16:48 17,2 6,4 7,0 WZW 21,0 1000,3 49 -
16:54 17,4 7,2 5,0 ZZW 11,0 1000,3 51 -
16:58 17,2 6,9 15,0 WZW 24,0 1000,3 51 -
17:04 17,2 6,9 9,0 ZZW 19,0 1000,3 51 -
17:08 17,1 6,2 7,0 ZZW 15,0 1000,3 49 -
17:14 17,3 6,8 10,0 WZW 16,0 1000,3 50 -
17:18 17,6 7,2 14,0 Westen 16,0 1000,3 51 -
17:24 17,6 6,8 17,0 WNW 18,0 1000,3 49 -
17:28 17,4 6,3 12,0 ZO 24,0 1000,3 48 -
17:34 17,3 5,9 5,0 Zuiden 16,0 1000,3 47 -
17:38 16,8 5,4 9,0 ZO 21,0 1000,3 47 -
17:44 16,9 6,4 10,0 WNW 26,0 1001,4 50 -
17:48 16,8 5,7 5,0 Oosten 18,0 1000,7 48 -
17:54 16,5 5,7 5,0 WNW 19,0 1009,8 49 -
17:58 16,4 5,7 15,0 WNW 24,0 1005,1 49 -
18:04 16,4 5,9 5,0 ZZO 19,0 1003,4 50 -
18:08 16,2 5,8 9,0 ZO 15,0 1006,4 50 -
18:14 16,7 6,2 5,0 NNW 16,0 1004,4 50 -
18:18 16,7 5,3 7,0 Westen 24,0 1003,1 47 -
18:24 16,4 5,3 14,0 Zuiden 19,0 1001,4 48 -
18:28 16,7 5,5 7,0 ZW 11,0 1000,3 48 -

Download your copy of this data-set  here

Our weather-data as stored at Weather Underground. Script ontwikkeld door Jim McMurry. Aangepast voor de template door Leuven-Template.eu

U vindt ons ook hier:

Het Weer Aktueel

UK Metoffice

European Weather Network

WeatherCloud

Weather Underground

Benelux Weer Netwerk

AWEKAS

Citizen Weather Observer Program (CWOP)

HAMweather, WeatherForYou, PWS Weather

Apparatuur in gebruik:

Weerstation
Davis VP2

Weerprogramma
Meteobridge

Weercomputer
TP-Link MR3020

Davis VP2

Meteobridge

TP-Link MR3020